Location: Canazei
(46.4667°N, 11.7667°E)
Time: 07:07:35
(UTC+00:00)

CZ-2D R/B - Pass Details

Date: 21 April 2021
Orbit: 552 x 638 km, 97.9° (Epoch: 05 May)

Event Time Altitude Azimuth Distance (km) Brightness Sun altitude
Rises 03:28:58 0° 3° (N) 2,797 7.4 -8.2°
Reaches altitude 10° 03:31:17 10° 353° (N) 1,908 6.3 -7.8°
Maximum altitude 03:34:53 30° 292° (WNW) 1,078 4.5 -7.3°
Drops below altitude 10° 03:38:33 10° 232° (SW) 1,940 5.5 -6.7°
Enters shadow 03:39:13 - 228° (SW) 2,187 5.8 -6.6°
